This is the latest recevied weather packets stored in our database for station/object N8JE-13. If no packets are shown the sender has not sent any weather packets the latest 10 day(s).
| Time | Temp. | Humidity | Pressure | Rain* | Wind** | Luminosity | Snow |
|---|---|---|---|---|---|---|---|
| 1777689351 | 4.44° C | 84% | 1017.5 hPa | 0 mm | - | - | - |
| 1777689051 | 4.44° C | 83% | 1017.3 hPa | 0 mm | - | - | - |
| 1777688751 | 5° C | 82% | 1017.3 hPa | 0 mm | - | - | - |
| 1777688451 | 5° C | 81% | 1017.3 hPa | 0 mm | - | - | - |
| 1777688152 | 5° C | 81% | 1017.2 hPa | 0 mm | - | - | - |
| 1777687852 | 5.56° C | 79% | 1017.1 hPa | 0 mm | - | - | - |
| 1777687552 | 5.56° C | 78% | 1016.9 hPa | 0 mm | - | - | - |
| 1777687251 | 6.11° C | 78% | 1016.9 hPa | 0 mm | - | - | - |
| 1777686951 | 6.11° C | 77% | 1016.7 hPa | 0 mm | - | - | - |
| 1777686652 | 6.67° C | 76% | 1016.5 hPa | 0 mm | - | - | - |
| 1777686352 | 6.67° C | 75% | 1016.4 hPa | 0 mm | - | - | - |
| 1777686051 | 6.67° C | 75% | 1016.4 hPa | 0 mm | - | - | - |
| 1777685751 | 7.22° C | 74% | 1016.4 hPa | 0 mm | - | - | - |
| 1777685451 | 7.22° C | 74% | 1016.4 hPa | 0 mm | - | - | - |
| 1777685151 | 7.22° C | 73% | 1016.4 hPa | 0 mm | - | - | - |
| 1777684853 | 7.22° C | 72% | 1016.3 hPa | 0 mm | - | - | - |
| 1777684551 | 7.22° C | 72% | 1016.2 hPa | 0 mm | - | - | - |
| 1777684251 | 7.78° C | 72% | 1016.1 hPa | 0 mm | - | - | - |
| 1777683951 | 7.22° C | 72% | 1016 hPa | 0 mm | - | - | - |
| 1777683651 | 7.78° C | 72% | 1015.8 hPa | 0 mm | - | - | - |
| 1777683351 | 7.78° C | 71% | 1015.7 hPa | 0 mm | - | - | - |
| 1777683053 | 7.78° C | 71% | 1015.6 hPa | 0 mm | - | - | - |
| 1777682753 | 7.78° C | 70% | 1015.6 hPa | 0 mm | - | - | - |
| 1777682452 | 7.78° C | 70% | 1015.5 hPa | 0 mm | - | - | - |
| 1777682152 | 7.78° C | 69% | 1015.6 hPa | 0 mm | - | - | - |
* Rain latest hour (hover to see other rain measurements)
** Current wind speed in m/s (hover to see current wind gust speed)